STARLINK-2542, 48292

Orbit data source: Space-Track

STARLINK-2542, 48292 is a payload satellite owned by SpaceX/Seattle (US) in LEO that was launched on Thu, 29 Apr 2021 UTC via an FALCON 9 launch vehicle from the Air Force Eastern Test Range (AFETR). Payload-class satellites include a variety of spacecraft equipped with specific instruments for various scientific and technological missions. These include communications satellites like Starlink; space stations such as the ISS; scientific satellites like the Hubble; Earth observation satellites from companies like Planet Labs, Umbra, and HawkEye 360; GPS; miniature CubeSats for education and research; and military/defense satellites.

Loading next visibility...
Identifier
48292, 2021-036S
Orbit
LEO
Country
Flag of USUS
Related business
Manufacturer
SpaceX/Seattle
Mission
Operational Commercial Communications
Bus & Motor
STARLINK, Unknown motor
Mass
260 kg wet, ~248 kg dry
Launch date (UTC)
2021-04-29 (4 years ago)
Launch vehicle
FALCON 9
Launch site
Air Force Eastern Test Range (AFETR)
Object type
Payload
Rocket body
Debris
Shape & HBR
Box + 1 Pan, 10.1 m
Radar Cross Section
13.562 m², Large (>1 m²)

Expand to show TLE details & history
Last TLE update: 19 hours ago

TLE from 19 hours ago
0 STARLINK-2542
1 48292U 21036S   25294.45066043  .00005379  00000-0  37972-3 0  9992
2 48292  53.0552 346.8534 0001395 101.7714 258.3431 15.06398475247321
Epoch: 2025-10-21T10:48Z
TLE epoch observation values (Epoch: 2025-10-21T10:48:57.061Z)
Latitude
-0.00005°
Longitude
154.47717°
Altitude
548.291 km
Speed
7.589 km/s
True Right ascension
23h 07m 24s
True Declination
0° 00' 00"
Sunlit
Object was in full shadow at epoch
Visualization orbit readout
Latitude
Unknown
Longitude
Unknown
Altitude
Unknown
Speed
Unknown
Apparent Right ascension
Unknown
Apparent Declination
Unknown
Sunlit
N/A
Visualization observer readout
Local Sidereal Time
01:15:51
Azimuth
Unknown
Elevation
Unknown
Doppler factor
Unknown
Orbital elements
Apogee altitude
548.453 km
Perigee altitude
546.521 km
Semi-major axis
6,925.624 km
Eccentricity
0.00014
Inclination
53.0552°
RAAN
346.8534°
Arg. of periapsis
101.7714°
True anomaly
258.32744°
Mean anomaly
258.3431°
Eccentric anomaly
258.33527°
Mean motion
3.76578 °/min
Orbital period
95.6 mins
BSTAR
0.00037972
Loading maneuver chart data...
Computing Atmospheric mass density...
Loading historical data...
Loading historical data...
Loading historical data...
Loading historical data...
Loading historical data...
Loading historical data...
Loading historical data...

Documentation

Showing up to 5 results
|